Voltar ao catálogo

STARLINK-31365

AtivoComunicaçõesVLEO
NORAD 58973·PAYLOAD·🇺🇸 United States

Lançado Feb 15, 2024 de Vandenberg Space Force Base

Loading…

Próximas Passagens (próximas 24 horas)

TLE

AtualizadoSource: CelesTrak SupGP

Época: Sep 15, 2026, 02:07 UTC

1 58973C 24031J   26258.08868056  .00038358  00000+0  11335-2 0  2585
2 58973  53.1562 134.7559 0001331  85.5537 217.1720 15.34366589    12

Acompanhe STARLINK-31365 em tempo real com AllMySat

Download on the App Store